Vorticity
14 14 13 12 12 11 10 10 9 8 7 8 9 9 9 10 16 23 30 29 26 22 20 18 16 15 14 14 14 13 12 11 11 12 14 15 14 13 11 9 8 7 6 6 6 7 7 7 8 8 8 8 8 8 8 8 8 8 8 8 8 8 8 8 8 8 7 7 7 7 7 6 6 6 6 5 5 5 5 5 4 4 4 4 4 5
11 12 13 13 13 13 13 13 13 12 10 8 7 6 5 6 10 16 23 25 24 22 20 20 19 19 19 17 16 15 14 14 14 13 13 12 10 8 6 5 5 5 5 6 6 7 7 8 8 8 8 8 8 8 8 8 8 8 9 9 9 9 8 8 8 7 7 6 6 5 5 4 4 4 4 4 4 4 4 4 4 4 5 6 7 8
9 12 14 15 16 17 17 18 18 16 13 9 7 5 4 4 7 12 18 22 23 22 21 20 20 19 18 17 16 14 13 12 11 10 9 7 6 5 4 4 4 5 6 7 7 8 8 8 8 8 8 8 8 8 8 9 9 9 9 9 9 9 8 7 7 6 5 5 4 4 3 3 3 3 3 3 4 4 5 6 7 8 9 10 12 13
13 14 16 16 18 20 21 20 19 17 14 12 11 10 7 8 10 13 17 21 22 21 20 19 17 16 14 13 12 10 9 8 7 6 6 5 5 5 5 5 6 7 7 8 8 8 8 8 8 8 8 8 8 9 9 9 9 9 9 8 8 7 7 6 5 5 4 4 4 4 3 3 4 4 5 6 8 9 10 12 13 14 15 16 17 18
17 18 18 17 19 20 20 19 18 16 15 16 18 19 17 15 15 16 18 19 18 16 14 13 11 10 9 8 7 6 6 6 6 6 5 5 6 6 7 7 8 8 8 8 8 8 8 9 9 9 9 9 9 9 9 9 8 8 7 6 6 5 5 4 4 4 4 4 5 5 6 7 8 10 12 13 15 16 17 18 19 20 21 21 22 22
20 20 18 18 18 18 16 16 16 16 16 20 23 25 23 20 18 16 15 13 11 8 6 5 5 5 4 5 5 5 5 5 5 6 6 6 6 7 7 7 7 7 7 8 8 9 9 10 10 10 9 9 8 8 7 7 6 6 5 5 4 4 4 4 5 5 6 7 8 10 12 14 16 18 19 21 21 22 23 23 24 24 24 24 24 24
19 19 18 19 18 17 15 15 15 16 17 19 21 22 20 17 13 11 8 6 5 3 2 2 2 3 4 4 4 5 5 5 5 5 5 5 5 5 6 6 6 7 8 8 9 9 10 10 9 9 8 7 7 6 6 5 5 4 4 4 4 5 6 6 7 9 10 12 15 17 20 22 23 24 25 25 25 26 26 26 25 25 25 24 24 24
15 16 17 17 16 15 15 15 15 15 15 15 14 13 11 9 7 5 3 3 2 2 3 3 3 3 4 4 4 4 4 4 4 4 3 4 4 5 5 6 7 7 8 9 9 9 9 9 8 7 7 6 6 5 5 4 4 5 5 6 7 8 9 11 12 14 17 19 22 24 25 26 26 26 26 26 25 25 25 24 24 23 22 22 21 21
14 13 15 15 13 11 11 13 14 14 12 11 9 7 5 4 4 3 3 2 2 2 3 4 4 4 3 3 4 3 3 3 3 3 3 4 5 6 6 7 8 8 9 9 9 8 8 7 7 6 5 5 5 5 5 5 6 7 8 9 11 12 14 16 18 20 23 24 26 26 26 26 25 25 24 23 23 22 21 20 19 18 17 17 16 15
16 15 13 14 13 11 9 10 10 10 10 8 7 5 4 4 4 4 3 2 2 3 3 4 4 5 4 3 3 3 3 3 4 5 5 6 7 8 8 8 9 9 8 8 8 7 6 6 5 5 5 5 5 5 6 7 9 11 12 14 16 17 19 21 23 25 26 26 26 25 24 23 22 21 20 19 18 16 15 14 13 12 12 11 10 10
15 15 13 11 9 10 14 11 8 7 9 9 8 6 5 4 5 5 4 4 4 4 3 3 4 5 5 4 4 4 4 5 6 7 8 8 9 9 8 8 8 7 7 7 6 6 5 5 5 5 5 6 7 8 10 12 13 15 17 18 20 21 23 25 26 26 26 25 24 22 21 19 18 16 14 13 12 11 10 9 9 8 8 7 7 7
12 11 12 10 8 8 11 10 9 8 10 10 9 7 5 4 3 4 4 5 5 5 4 4 4 4 4 5 5 6 6 7 8 8 9 8 8 8 7 7 6 6 5 5 5 5 5 5 5 6 7 9 10 12 14 16 18 19 20 22 23 24 25 26 25 24 23 21 19 17 15 14 12 11 9 8 8 7 7 7 7 7 6 6 7 7
12 11 10 10 10 9 8 7 6 7 8 8 8 7 5 4 4 3 3 4 4 4 4 4 4 5 5 5 7 8 8 8 8 8 8 7 6 6 5 5 5 4 4 5 5 5 6 7 8 9 11 13 15 17 19 20 21 22 23 24 25 25 25 24 22 20 18 16 14 12 10 9 8 7 6 6 6 6 6 6 6 6 6 7 7 7
9 9 10 9 8 8 7 6 6 6 6 6 5 5 5 4 4 4 3 3 3 4 5 5 6 7 8 8 8 8 8 7 7 6 6 6 5 4 4 4 4 5 5 6 7 8 9 10 12 14 16 18 20 22 23 24 24 24 24 24 24 23 22 20 17 15 13 11 9 8 7 6 6 5 6 6 6 6 6 6 7 7 7 7 7 7
6 6 7 7 6 6 6 6 5 5 5 5 5 5 5 5 5 5 5 5 6 6 6 7 7 8 8 8 7 7 6 5 5 4 5 5 5 5 4 5 6 7 8 9 10 12 12 14 17 19 21 23 24 25 25 25 25 24 24 23 21 19 17 14 12 10 8 7 6 5 5 5 5 5 6 6 6 6 7 7 6 6 6 6 6 6
4 5 5 5 4 5 5 5 5 6 6 6 6 6 6 6 6 6 6 6 6 6 7 6 7 7 9 8 7 6 5 4 4 4 4 6 6 7 6 7 9 10 11 13 14 15 16 19 21 23 25 26 26 26 25 24 23 22 21 19 17 14 12 10 8 7 6 5 5 5 5 5 6 6 6 6 7 7 7 7 7 6 6 7 7 7
4 4 4 4 4 4 5 5 5 5 6 5 5 6 6 6 6 6 6 6 6 6 7 6 5 4 4 6 7 8 6 6 6 6 7 8 9 9 10 11 12 13 14 16 17 18 19 22 24 25 27 27 26 25 24 22 20 18 16 14 12 9 8 6 6 5 5 5 5 5 6 6 6 6 7 7 7 7 7 7 7 7 7 7 8 8
6 6 6 6 6 6 6 6 6 6 6 6 6 6 7 7 7 6 6 6 6 6 6 7 7 6 4 5 6 7 8 8 8 9 11 12 13 13 12 14 15 16 17 18 20 21 22 24 25 26 26 25 23 22 20 18 16 14 12 9 8 6 5 5 5 5 5 6 6 6 6 6 7 7 7 7 7 7 7 7 8 8 8 8 8 8
10 10 10 9 9 9 9 9 9 9 9 9 9 9 9 9 9 9 9 9 9 9 8 9 10 11 11 11 9 8 10 11 12 12 14 15 15 14 14 15 16 17 19 20 21 22 24 25 26 25 24 22 20 18 16 14 12 10 8 6 6 5 5 6 6 6 6 6 6 7 7 7 7 7 8 8 8 8 8 7 7 7 7 7 7 7
12 12 12 12 12 12 12 12 13 13 13 13 13 13 13 13 13 13 13 13 13 13 13 13 14 14 14 14 12 12 12 13 14 15 16 16 16 15 14 15 17 18 20 22 22 23 24 24 24 23 21 19 17 14 12 10 8 7 6 6 6 6 6 6 6 7 7 7 7 7 7 7 8 8 8 8 8 7 7 7 7 7 7 7 7 7
14 14 14 15 15 15 14 15 15 16 16 16 15 15 15 15 15 15 15 15 15 15 16 16 15 15 15 15 14 14 13 14 15 15 16 18 18 18 16 17 18 19 21 22 23 23 23 23 22 19 17 15 13 11 9 7 7 6 6 6 6 7 7 7 7 7 7 7 7 8 8 8 8 8 8 7 7 7 6 6 6 6 7 7 7 7
15 15 15 16 17 16 16 16 17 17 17 16 16 16 16 16 16 16 16 17 17 17 17 17 17 17 17 17 16 16 15 15 16 16 17 19 20 20 18 18 19 21 23 22 22 22 22 20 18 16 13 11 9 8 7 7 6 7 7 7 7 7 7 7 8 8 8 8 8 8 8 8 8 7 7 7 6 6 6 6 6 7 7 7 7 7
15 15 15 16 16 16 16 16 16 17 17 16 16 16 16 16 16 17 17 17 17 18 18 17 17 17 17 17 17 16 16 15 16 17 18 21 21 20 17 18 20 22 24 22 21 20 18 16 14 12 10 9 8 7 7 7 7 7 8 8 8 8 8 8 8 8 8 8 8 8 8 7 7 7 6 6 6 6 6 6 6 7 7 7 7 7
14 14 13 14 14 14 14 14 14 15 15 16 16 17 17 18 18 18 17 17 16 16 16 15 15 17 18 17 16 16 16 16 15 16 19 22 23 21 17 17 19 22 23 21 19 17 15 13 11 9 8 7 7 7 8 8 8 8 8 8 8 8 8 8 8 8 8 8 8 7 7 7 6 6 6 6 6 6 6 6 6 7 7 7 7 7
12 12 12 12 12 12 13 13 12 12 13 14 14 14 14 16 16 16 15 15 15 15 14 14 15 17 17 16 16 16 15 15 16 17 20 22 23 21 18 17 19 20 20 18 17 15 12 10 9 8 7 7 8 8 8 8 8 8 9 9 9 9 9 8 8 8 8 8 7 7 6 6 6 6 6 6 6 6 6 6 6 6 6 6 6 6
11 11 10 10 11 11 11 11 11 11 11 12 12 12 12 12 12 12 14 16 15 14 12 14 17 18 16 16 16 16 12 14 16 19 21 21 22 21 18 18 18 18 17 15 14 12 10 9 9 8 8 8 8 8 9 9 9 9 9 9 9 9 9 8 8 8 8 7 7 6 6 6 5 5 5 6 6 6 6 6 6 6 6 6 6 6
10 10 10 10 10 10 11 11 11 10 10 10 11 11 11 10 11 13 16 15 13 10 11 14 15 16 15 17 18 17 11 13 16 19 22 22 22 21 18 16 16 16 14 12 11 10 8 8 8 8 8 8 8 9 9 9 9 9 9 9 9 8 8 8 8 7 7 6 6 6 5 5 5 5 5 5 5 5 5 5 5 5 5 5 6 6
10 10 10 10 10 10 10 10 10 10 10 10 10 10 11 10 11 13 15 11 9 10 14 15 14 13 14 17 17 15 12 13 15 17 19 21 23 22 17 15 15 14 12 10 9 8 8 8 8 8 8 8 8 8 8 8 8 8 8 8 8 8 8 8 7 7 6 6 5 5 5 5 5 5 5 5 5 5 5 5 5 5 5 5 5 5
11 10 11 11 11 10 10 10 10 10 10 10 9 10 11 12 13 13 12 8 9 12 15 16 15 15 14 15 15 15 16 16 15 15 16 20 22 22 16 14 14 13 10 8 8 8 9 8 8 8 8 8 8 8 8 8 8 8 8 8 8 8 7 7 6 6 5 5 4 4 4 4 4 4 4 4 4 4 4 4 4 4 5 5 5 5
11 11 11 11 11 11 10 10 10 10 10 10 10 10 11 13 14 13 9 9 11 13 14 14 14 15 14 13 14 16 20 17 15 14 14 20 22 20 16 14 13 11 9 8 7 8 10 9 9 8 8 8 8 8 8 7 7 7 7 7 7 7 7 6 6 5 4 4 4 4 4 4 4 4 4 4 4 4 4 4 4 4 4 4 5 5
10 10 10 10 10 10 10 10 10 10 10 10 10 10 10 12 13 12 10 11 13 14 14 14 14 14 14 13 15 17 18 14 13 13 14 21 22 19 15 12 10 9 9 8 7 7 9 10 11 10 9 9 9 8 8 8 7 7 7 7 7 7 6 5 5 4 4 3 3 3 3 3 4 4 4 4 4 4 4 4 4 4 4 5 5 5
10 10 10 10 10 10 10 10 10 9 9 10 10 10 10 11 11 12 12 13 13 14 14 15 15 16 16 18 20 20 16 11 10 12 15 19 20 18 15 12 9 8 8 8 8 8 8 10 10 11 11 10 10 9 9 8 8 8 7 7 7 6 5 4 4 3 3 3 3 3 3 3 3 4 4 4 4 4 4 4 4 4 4 5 5 5
10 10 10 10 10 10 10 10 10 10 10 10 10 10 10 11 11 12 13 14 14 15 15 15 15 16 17 20 22 22 19 13 11 11 14 16 16 14 13 11 9 7 8 8 9 9 9 10 10 10 11 11 10 9 9 8 8 7 7 6 6 5 4 4 3 3 3 3 3 3 3 3 4 4 4 4 4 4 4 4 5 5 5 5 5 5
10 10 10 10 10 10 10 10 10 10 10 11 11 11 11 11 11 12 13 14 15 16 17 16 16 15 15 17 19 20 20 16 13 12 12 14 14 12 10 10 9 8 8 8 9 9 9 9 9 9 10 10 10 10 8 7 7 6 6 5 5 4 3 3 3 3 3 3 4 4 4 4 4 4 4 5 5 5 5 5 5 5 6 6 6 6
10 10 10 10 10 10 10 10 10 11 11 11 11 11 11 11 12 12 13 13 15 16 18 19 19 18 16 16 16 17 17 13 11 11 12 13 12 11 9 9 8 8 8 8 9 9 9 9 8 8 8 9 9 9 8 7 5 5 5 5 5 4 4 3 3 3 4 4 5 5 5 5 6 6 6 6 6 6 6 6 6 6 6 6 6 6
10 10 10 10 10 10 10 10 10 10 11 11 11 11 11 12 12 12 13 13 14 15 17 18 20 20 20 18 18 17 14 10 9 10 11 10 10 9 9 8 8 8 8 8 8 8 8 8 8 8 7 7 7 7 6 6 5 5 5 5 5 5 5 5 5 5 5 6 7 7 7 8 8 8 8 8 8 8 8 7 7 7 7 7 7 7
10 10 10 10 10 10 10 10 10 11 11 11 11 12 12 12 12 13 13 13 14 15 16 17 18 19 20 20 19 18 15 11 10 10 10 9 8 8 8 8 8 8 8 8 8 8 8 7 7 7 6 6 6 6 5 5 5 6 6 6 6 7 7 8 8 8 8 9 9 10 10 10 10 10 10 9 9 9 9 9 8 8 8 8 8 8
11 11 10 11 11 11 10 11 11 12 11 11 11 12 12 13 13 13 13 14 14 15 15 16 17 17 18 18 18 17 15 13 11 10 9 9 8 8 8 8 8 8 8 7 7 7 7 7 6 6 6 5 5 5 5 5 5 6 7 8 9 9 10 10 11 11 11 11 11 11 11 11 11 11 10 10 9 9 10 9 9 9 9 9 9 9
11 11 11 11 11 11 11 12 12 12 12 12 12 12 12 13 14 14 14 14 15 15 16 16 16 16 17 16 16 15 14 13 11 10 9 9 9 8 8 8 8 8 8 7 7 7 7 6 6 6 5 5 5 4 5 5 6 7 8 9 11 12 13 12 12 12 12 12 12 12 12 11 11 11 10 10 10 10 10 10 10 10 10 10 11 11
11 12 12 12 12 12 12 12 12 12 12 13 13 13 14 14 14 15 15 15 15 15 16 16 17 17 17 16 15 14 13 12 11 10 10 9 9 9 9 8 8 8 7 7 7 7 6 6 6 5 5 5 5 5 5 6 7 8 8 9 11 11 11 11 11 12 11 11 11 11 11 11 11 11 11 11 11 11 11 11 11 11 11 11 12 12
11 12 12 12 12 12 13 13 13 13 13 13 13 13 14 14 14 13 13 14 14 15 15 15 16 16 17 16 16 14 13 12 11 11 10 9 9 9 9 9 8 8 7 7 7 7 6 6 6 6 6 6 6 5 5 6 7 8 8 9 9 8 8 9 10 11 11 12 13 13 13 13 13 13 12 13 13 13 13 13 13 13 14 14 15 15
12 12 11 11 12 12 13 12 13 13 14 14 14 14 14 14 14 13 13 13 13 14 14 14 14 14 14 15 15 14 13 12 12 11 10 10 9 9 8 8 8 8 8 7 7 7 7 6 6 7 7 7 7 7 7 7 7 8 8 8 8 8 9 11 12 12 13 14 15 15 15 15 14 14 14 14 15 15 15 16 16 16 16 17 17 17
12 12 11 12 12 12 12 12 13 13 13 14 15 15 14 14 14 14 14 14 14 14 13 14 14 14 14 13 13 13 13 12 12 11 11 10 10 9 9 8 8 8 8 8 8 8 7 7 7 7 7 8 8 8 8 8 7 7 8 8 9 10 11 12 12 13 14 15 15 15 15 15 15 15 15 15 16 16 17 17 18 18 18 18 18 18
11 11 11 12 12 12 12 13 14 14 13 14 14 14 14 14 14 14 14 15 14 14 14 14 14 15 15 14 13 12 12 12 12 12 11 11 10 10 9 9 9 9 9 8 8 8 8 8 8 8 8 8 8 8 8 8 8 8 8 10 11 12 13 14 14 14 14 15 15 15 15 15 14 15 15 15 15 16 16 16 17 17 17 17 17 17
11 11 12 12 12 12 14 14 14 14 14 14 14 14 14 14 14 14 14 14 14 14 14 13 13 14 15 15 14 12 12 12 12 12 11 11 11 10 10 10 9 9 9 9 9 8 8 8 8 8 8 8 8 8 9 9 10 10 11 12 13 14 15 15 15 15 14 14 13 13 13 13 13 13 14 14 14 14 14 15 15 15 15 15 15 15
12 12 12 12 13 14 14 14 13 14 14 14 14 14 13 13 13 14 14 14 14 14 14 13 14 14 14 14 13 13 12 12 12 11 11 11 11 11 10 10 10 9 9 9 9 9 8 8 8 7 8 8 8 9 10 11 12 13 13 14 14 14 15 14 14 13 13 12 12 12 11 12 12 12 13 13 13 13 13 13 13 13 13 13 13 13
12 12 12 13 13 14 14 14 14 14 14 14 14 13 13 13 13 13 14 13 13 13 12 13 14 14 14 13 13 12 12 12 11 11 11 11 11 11 10 10 10 10 9 9 8 8 8 8 8 8 8 9 10 11 12 12 13 14 14 14 14 13 13 13 12 12 12 12 11 11 11 11 11 12 12 12 13 13 13 13 13 13 12 12 12 12
12 12 12 13 13 13 13 14 14 14 13 13 13 13 12 12 12 12 12 12 12 12 12 12 13 13 13 13 13 13 12 12 11 11 11 11 11 10 10 10 10 10 10 9 9 9 8 8 9 9 10 11 12 13 13 13 14 14 13 13 13 12 12 11 11 11 11 11 11 11 11 11 11 11 11 12 12 13 13 13 13 13 12 12 12 12
12 12 12 12 13 13 13 13 13 13 13 12 12 12 12 12 12 12 11 11 11 11 11 12 12 12 12 13 12 12 12 12 12 11 11 10 10 9 9 9 9 9 9 9 9 9 9 10 10 11 12 13 14 14 14 13 13 12 12 11 11 11 11 11 11 11 11 11 11 11 11 11 11 11 11 12 12 13 13 13 13 13 12 12 12 12
13 13 12 12 13 13 12 12 12 12 12 12 11 11 11 11 11 11 11 11 11 11 11 12 12 12 12 12 12 11 11 11 11 11 10 10 9 8 8 8 8 8 9 9 9 10 10 11 12 13 15 15 14 13 13 12 11 11 11 11 10 10 11 11 11 11 11 12 12 11 11 11 11 11 11 12 12 12 12 13 13 12 12 12 12 12
12 12 12 13 13 12 11 11 12 12 11 11 11 11 10 11 11 11 11 11 11 11 11 11 12 12 11 11 11 11 10 10 10 10 9 9 9 9 9 9 10 10 10 11 11 12 12 12 13 14 15 15 14 12 11 11 10 10 10 10 10 10 11 11 12 12 12 12 12 12 12 11 11 11 10 10 10 11 11 11 12 12 12 12 12 12
Height
3047 3046 3046 3046 3045 3045 3045 3044 3043 3043 3042 3041 3039 3037 3036 3034 3033 3031 3031 3030 3029 3029 3029 3029 3029 3029 3030 3031 3032 3033 3034 3035 3036 3036 3037 3037 3038 3038 3038 3039 3039 3039 3040 3040 3040 3040 3040 3040 3041 3041 3041 3041 3041 3041 3041 3041 3041 3041 3041 3041 3041 3041 3041 3041 3041 3041 3042 3042 3042 3042 3042 3042 3042 3041 3041 3041 3041 3041 3041 3041 3041 3041 3041 3041 3042 3042
3045 3044 3044 3043 3042 3042 3042 3041 3041 3040 3039 3039 3037 3036 3035 3033 3032 3031 3030 3029 3028 3028 3028 3028 3028 3029 3030 3031 3032 3033 3033 3034 3034 3035 3035 3035 3036 3036 3036 3037 3037 3037 3038 3038 3038 3038 3038 3038 3038 3038 3038 3038 3038 3038 3038 3038 3038 3038 3038 3038 3038 3038 3038 3038 3038 3038 3038 3038 3038 3038 3038 3038 3038 3038 3038 3038 3038 3038 3038 3038 3038 3038 3038 3038 3038 3038
3042 3042 3041 3041 3040 3040 3039 3038 3038 3037 3037 3036 3036 3035 3033 3032 3031 3030 3029 3028 3028 3027 3027 3028 3028 3029 3029 3030 3031 3031 3032 3032 3032 3033 3033 3033 3034 3034 3034 3035 3035 3036 3036 3036 3036 3036 3036 3036 3036 3035 3035 3035 3035 3035 3035 3035 3035 3035 3035 3035 3035 3035 3036 3035 3035 3035 3035 3035 3035 3035 3035 3035 3035 3035 3034 3034 3034 3034 3034 3034 3034 3034 3034 3034 3034 3034
3040 3040 3039 3038 3038 3037 3036 3036 3035 3035 3034 3034 3033 3032 3032 3031 3030 3029 3028 3027 3027 3027 3027 3027 3027 3028 3028 3028 3029 3029 3030 3030 3031 3031 3031 3031 3032 3032 3032 3033 3033 3033 3034 3034 3034 3033 3033 3033 3033 3033 3033 3033 3033 3032 3032 3032 3032 3032 3032 3032 3032 3032 3032 3032 3032 3032 3032 3032 3031 3031 3031 3031 3031 3031 3031 3031 3031 3031 3031 3031 3031 3030 3030 3030 3030 3030
3038 3037 3037 3036 3036 3035 3035 3034 3033 3033 3032 3032 3031 3031 3030 3029 3029 3028 3027 3026 3026 3026 3026 3026 3026 3026 3026 3027 3027 3028 3028 3029 3029 3029 3029 3030 3030 3030 3031 3031 3031 3031 3031 3031 3031 3031 3031 3031 3031 3031 3030 3030 3030 3030 3030 3030 3030 3030 3030 3030 3030 3030 3029 3029 3029 3029 3028 3028 3028 3027 3027 3027 3027 3027 3027 3027 3027 3027 3027 3027 3027 3027 3026 3026 3026 3027
3036 3035 3035 3034 3034 3033 3033 3032 3032 3031 3031 3030 3030 3029 3029 3028 3027 3027 3026 3026 3026 3025 3025 3025 3025 3025 3025 3026 3026 3026 3027 3027 3027 3027 3027 3028 3028 3028 3029 3029 3029 3029 3029 3029 3029 3029 3029 3028 3028 3028 3028 3027 3027 3027 3027 3027 3027 3026 3026 3026 3026 3026 3026 3026 3026 3025 3025 3024 3024 3024 3024 3024 3023 3023 3023 3023 3023 3023 3023 3023 3023 3023 3023 3023 3023 3023
3034 3033 3033 3032 3032 3032 3032 3031 3031 3031 3030 3029 3029 3028 3028 3027 3027 3026 3026 3025 3025 3025 3024 3024 3024 3024 3024 3024 3025 3025 3025 3026 3026 3026 3026 3026 3026 3026 3027 3027 3027 3027 3027 3027 3026 3026 3026 3026 3026 3025 3025 3025 3025 3024 3024 3024 3024 3024 3023 3023 3023 3023 3022 3022 3021 3021 3021 3021 3020 3020 3020 3020 3020 3020 3020 3020 3020 3020 3020 3020 3020 3020 3020 3020 3021 3021
3032 3031 3031 3031 3031 3031 3031 3030 3030 3030 3029 3029 3028 3028 3027 3027 3026 3026 3025 3024 3024 3024 3023 3023 3023 3023 3023 3023 3023 3023 3024 3024 3024 3024 3024 3024 3025 3025 3025 3025 3025 3025 3024 3024 3024 3024 3023 3023 3023 3022 3022 3022 3021 3021 3021 3021 3021 3020 3020 3020 3019 3019 3019 3018 3018 3017 3017 3017 3017 3017 3017 3016 3016 3016 3016 3017 3017 3017 3017 3017 3017 3017 3017 3018 3018 3018
3030 3030 3030 3030 3030 3029 3029 3029 3029 3029 3028 3028 3027 3027 3026 3026 3025 3025 3024 3023 3023 3022 3022 3022 3022 3021 3021 3022 3022 3022 3022 3022 3022 3022 3022 3022 3022 3022 3022 3022 3022 3022 3021 3021 3021 3021 3020 3020 3020 3019 3019 3019 3018 3018 3018 3017 3017 3016 3016 3016 3016 3015 3015 3014 3014 3014 3014 3014 3014 3014 3014 3014 3014 3014 3014 3014 3014 3014 3015 3015 3015 3015 3015 3015 3015 3015
3029 3029 3029 3028 3028 3028 3028 3028 3028 3027 3027 3027 3026 3026 3025 3025 3024 3023 3023 3022 3022 3021 3021 3021 3021 3020 3020 3020 3020 3021 3021 3021 3021 3021 3020 3020 3020 3020 3020 3020 3019 3019 3019 3018 3018 3017 3017 3017 3016 3016 3016 3015 3015 3015 3014 3014 3013 3013 3012 3012 3011 3011 3011 3011 3011 3011 3011 3011 3011 3011 3011 3011 3011 3011 3011 3011 3012 3012 3012 3012 3012 3012 3012 3012 3013 3013
3028 3027 3027 3027 3027 3027 3027 3027 3027 3026 3026 3026 3025 3025 3024 3024 3023 3022 3022 3021 3020 3020 3020 3020 3019 3019 3019 3019 3019 3019 3019 3019 3018 3018 3018 3018 3018 3017 3017 3016 3016 3016 3016 3015 3015 3014 3014 3013 3012 3012 3012 3011 3011 3011 3011 3010 3010 3009 3009 3008 3008 3008 3008 3008 3008 3008 3008 3008 3008 3009 3009 3009 3009 3009 3009 3009 3010 3010 3010 3010 3010 3010 3010 3010 3010 3010
3027 3026 3026 3026 3026 3026 3026 3026 3026 3026 3025 3025 3024 3024 3023 3023 3022 3021 3021 3020 3019 3019 3019 3018 3018 3018 3017 3017 3017 3017 3017 3016 3016 3016 3016 3015 3015 3014 3014 3014 3013 3013 3012 3012 3011 3011 3010 3009 3009 3008 3008 3008 3008 3007 3007 3006 3006 3006 3005 3005 3005 3005 3005 3005 3005 3006 3006 3006 3006 3006 3007 3007 3007 3007 3007 3007 3007 3007 3007 3008 3008 3008 3008 3008 3008 3008
3026 3025 3025 3025 3024 3024 3024 3024 3024 3024 3024 3023 3023 3023 3022 3021 3021 3021 3020 3019 3018 3018 3017 3017 3017 3016 3016 3016 3015 3015 3015 3014 3014 3013 3012 3012 3011 3011 3011 3010 3010 3009 3009 3008 3008 3007 3006 3005 3005 3005 3005 3004 3004 3004 3003 3003 3002 3002 3002 3002 3002 3002 3003 3003 3003 3003 3004 3004 3004 3005 3005 3005 3005 3005 3005 3005 3005 3005 3005 3006 3006 3006 3006 3006 3006 3006
3025 3024 3024 3023 3023 3023 3023 3022 3022 3022 3022 3022 3021 3021 3021 3020 3020 3019 3019 3018 3017 3016 3016 3016 3015 3014 3014 3013 3013 3012 3012 3011 3011 3010 3010 3009 3008 3008 3007 3006 3006 3006 3005 3005 3004 3003 3002 3001 3001 3001 3001 3001 3001 3000 3000 3000 3000 3000 3000 3000 3000 3000 3001 3001 3001 3002 3002 3002 3002 3003 3003 3003 3003 3003 3003 3003 3003 3003 3003 3003 3003 3003 3003 3004 3003 3003
3024 3024 3023 3022 3022 3021 3021 3021 3021 3021 3020 3020 3020 3019 3019 3018 3018 3017 3016 3016 3015 3015 3014 3013 3013 3012 3011 3011 3010 3009 3009 3008 3008 3007 3006 3006 3005 3004 3003 3003 3002 3002 3001 3001 3000 2999 2998 2998 2998 2998 2998 2998 2997 2997 2997 2997 2997 2997 2997 2998 2998 2999 2999 2999 3000 3000 3000 3001 3001 3001 3001 3001 3001 3001 3001 3001 3001 3001 3001 3001 3001 3001 3001 3001 3001 3001
3023 3022 3022 3021 3021 3020 3020 3019 3019 3018 3018 3017 3017 3017 3016 3016 3015 3014 3014 3013 3012 3012 3011 3011 3010 3009 3008 3007 3006 3006 3006 3005 3005 3004 3003 3003 3002 3001 2999 2999 2998 2998 2997 2997 2996 2995 2995 2995 2995 2995 2995 2995 2995 2995 2995 2995 2995 2996 2996 2996 2997 2997 2997 2998 2998 2998 2998 2998 2999 2999 2999 2999 2999 2999 2999 2999 2999 2999 2999 2999 2999 2999 2999 2999 2999 2999
3022 3021 3021 3020 3019 3018 3018 3017 3016 3016 3016 3015 3015 3014 3013 3013 3012 3011 3011 3010 3009 3009 3008 3007 3007 3006 3005 3004 3003 3002 3002 3001 3001 3001 3000 3000 2999 2997 2996 2995 2995 2994 2994 2993 2993 2992 2992 2992 2992 2992 2992 2992 2992 2992 2993 2993 2993 2994 2994 2995 2995 2996 2996 2996 2996 2996 2996 2996 2996 2997 2997 2997 2997 2997 2997 2997 2997 2997 2997 2997 2997 2997 2997 2997 2997 2997
3020 3019 3018 3018 3017 3016 3016 3015 3014 3013 3013 3012 3012 3011 3011 3010 3009 3008 3007 3007 3006 3006 3005 3004 3004 3003 3002 3001 3000 2999 2998 2998 2997 2997 2996 2996 2996 2994 2992 2991 2991 2991 2991 2990 2990 2989 2989 2989 2990 2990 2990 2990 2990 2991 2991 2991 2992 2992 2993 2993 2993 2994 2994 2994 2994 2994 2994 2994 2994 2995 2995 2995 2995 2995 2995 2995 2995 2995 2995 2995 2995 2995 2995 2994 2994 2994
3018 3017 3016 3015 3015 3014 3013 3012 3011 3011 3010 3010 3009 3008 3008 3007 3006 3006 3005 3004 3003 3003 3002 3001 3001 3000 2999 2998 2997 2996 2994 2994 2993 2993 2993 2993 2992 2991 2989 2988 2987 2988 2988 2988 2987 2987 2987 2987 2987 2988 2988 2988 2988 2989 2989 2990 2991 2991 2991 2991 2991 2992 2992 2992 2992 2992 2992 2992 2992 2992 2992 2993 2993 2993 2993 2993 2993 2992 2992 2992 2992 2992 2992 2992 2992 2992
3015 3015 3014 3013 3012 3011 3010 3009 3008 3008 3007 3006 3006 3005 3005 3004 3003 3002 3002 3001 3001 3000 2999 2998 2997 2997 2996 2995 2994 2992 2991 2990 2990 2989 2990 2990 2989 2988 2986 2985 2985 2985 2986 2985 2985 2985 2985 2985 2986 2986 2986 2986 2987 2987 2988 2988 2989 2989 2989 2989 2989 2990 2990 2990 2990 2990 2990 2990 2990 2990 2990 2991 2991 2991 2991 2990 2990 2990 2990 2990 2990 2990 2990 2990 2990 2989
3013 3012 3011 3011 3010 3009 3007 3007 3006 3005 3004 3004 3003 3002 3001 3001 3000 2999 2998 2998 2997 2996 2996 2995 2994 2993 2992 2991 2990 2989 2988 2987 2986 2986 2986 2987 2986 2985 2983 2982 2982 2983 2983 2983 2983 2983 2983 2984 2984 2984 2985 2985 2986 2986 2986 2987 2987 2987 2987 2987 2987 2987 2987 2987 2987 2987 2988 2988 2988 2988 2988 2988 2988 2988 2988 2988 2988 2987 2987 2987 2987 2987 2987 2987 2987 2987
3011 3010 3010 3008 3007 3006 3006 3005 3004 3003 3002 3001 3000 2999 2998 2998 2997 2996 2996 2995 2994 2993 2993 2992 2991 2990 2989 2988 2987 2986 2985 2984 2983 2983 2984 2984 2984 2982 2981 2980 2980 2981 2981 2981 2981 2981 2981 2982 2982 2983 2983 2983 2984 2984 2985 2985 2985 2985 2985 2985 2985 2985 2985 2985 2985 2985 2986 2986 2986 2986 2986 2986 2986 2985 2985 2985 2985 2985 2985 2985 2985 2985 2985 2985 2985 2985
3009 3008 3007 3006 3006 3004 3003 3002 3001 3001 3000 2999 2998 2997 2996 2995 2995 2994 2993 2992 2991 2991 2990 2989 2988 2987 2986 2986 2984 2983 2982 2981 2981 2981 2981 2982 2981 2980 2978 2978 2978 2979 2980 2980 2980 2980 2980 2981 2981 2981 2981 2982 2982 2982 2983 2983 2983 2983 2983 2983 2983 2983 2983 2983 2983 2983 2983 2983 2983 2983 2983 2983 2983 2983 2983 2982 2982 2982 2982 2982 2982 2982 2982 2982 2982 2982
3007 3006 3005 3004 3003 3002 3001 3000 2999 2998 2997 2996 2996 2995 2994 2993 2992 2991 2991 2990 2989 2988 2987 2986 2986 2985 2984 2983 2981 2980 2979 2978 2978 2978 2979 2980 2979 2978 2977 2976 2976 2977 2978 2978 2978 2978 2979 2979 2979 2979 2980 2980 2981 2981 2981 2981 2981 2981 2981 2981 2981 2981 2981 2981 2981 2981 2981 2981 2981 2981 2981 2981 2981 2981 2980 2980 2980 2980 2980 2980 2980 2980 2980 2980 2980 2980
3005 3004 3003 3002 3001 3000 2999 2998 2997 2996 2995 2994 2993 2992 2991 2991 2990 2989 2988 2987 2986 2985 2984 2984 2983 2982 2981 2981 2979 2978 2977 2976 2976 2976 2977 2977 2977 2976 2975 2975 2975 2976 2976 2976 2977 2977 2977 2977 2977 2977 2978 2978 2978 2979 2979 2979 2979 2979 2978 2979 2979 2979 2979 2979 2979 2979 2979 2979 2979 2978 2978 2978 2978 2978 2978 2978 2978 2978 2978 2978 2977 2977 2977 2977 2977 2977
3003 3002 3001 3000 2999 2998 2997 2996 2995 2994 2993 2992 2991 2990 2989 2989 2988 2987 2986 2985 2983 2982 2982 2981 2981 2980 2979 2978 2977 2976 2975 2974 2974 2974 2975 2975 2976 2975 2974 2973 2974 2974 2975 2975 2975 2975 2975 2975 2976 2976 2976 2976 2976 2977 2977 2977 2977 2977 2976 2976 2977 2977 2977 2977 2976 2976 2976 2976 2976 2976 2976 2976 2976 2976 2976 2976 2976 2976 2975 2975 2975 2975 2974 2974 2974 2974
3001 3001 2999 2998 2997 2996 2996 2994 2993 2992 2991 2990 2989 2988 2987 2986 2986 2985 2984 2983 2981 2981 2980 2979 2979 2978 2977 2976 2976 2974 2973 2972 2972 2972 2973 2973 2974 2973 2972 2972 2972 2973 2973 2973 2974 2974 2974 2974 2974 2974 2974 2974 2975 2975 2975 2975 2975 2975 2975 2975 2975 2975 2975 2975 2975 2974 2974 2974 2974 2974 2974 2974 2974 2974 2974 2973 2973 2973 2972 2972 2972 2972 2971 2971 2971 2971
3000 2999 2998 2997 2996 2995 2994 2993 2991 2991 2989 2988 2987 2986 2985 2984 2984 2983 2982 2981 2980 2979 2978 2977 2977 2976 2976 2975 2974 2973 2972 2971 2970 2970 2971 2972 2972 2972 2971 2971 2971 2971 2972 2972 2972 2972 2972 2972 2972 2972 2972 2972 2973 2973 2973 2973 2973 2973 2973 2973 2973 2973 2972 2972 2972 2972 2972 2972 2972 2972 2972 2972 2971 2971 2971 2971 2971 2970 2970 2969 2969 2969 2969 2968 2968 2968
2998 2997 2996 2995 2994 2993 2992 2991 2990 2989 2987 2986 2985 2984 2983 2982 2981 2981 2980 2979 2978 2977 2976 2975 2975 2974 2973 2973 2972 2971 2970 2969 2968 2968 2969 2970 2970 2970 2970 2969 2969 2970 2970 2970 2971 2971 2971 2971 2971 2971 2971 2971 2971 2971 2971 2971 2971 2971 2971 2971 2971 2971 2971 2970 2970 2970 2970 2970 2970 2970 2970 2969 2969 2969 2968 2968 2968 2967 2967 2966 2966 2966 2966 2966 2966 2966
2996 2995 2994 2993 2992 2991 2990 2989 2988 2987 2986 2985 2983 2982 2981 2980 2979 2978 2978 2977 2976 2975 2974 2973 2973 2972 2971 2971 2971 2970 2968 2967 2966 2966 2967 2968 2968 2968 2968 2968 2968 2968 2969 2969 2969 2969 2969 2969 2969 2969 2969 2969 2969 2969 2969 2969 2969 2969 2969 2969 2969 2968 2968 2968 2968 2968 2968 2968 2967 2967 2967 2966 2966 2966 2966 2965 2965 2965 2964 2964 2963 2963 2963 2963 2963 2962
2995 2993 2992 2991 2990 2989 2988 2987 2986 2985 2984 2983 2982 2981 2979 2978 2977 2976 2976 2975 2974 2973 2972 2971 2971 2970 2969 2969 2969 2968 2967 2965 2964 2964 2965 2966 2967 2967 2967 2967 2967 2967 2967 2968 2968 2968 2968 2968 2968 2968 2968 2968 2968 2968 2967 2967 2967 2967 2967 2967 2966 2966 2966 2966 2966 2966 2966 2965 2965 2965 2964 2964 2964 2963 2963 2962 2962 2962 2961 2961 2961 2960 2960 2960 2960 2960
2993 2992 2991 2990 2988 2987 2986 2985 2984 2983 2982 2981 2980 2979 2978 2976 2976 2975 2974 2973 2972 2971 2971 2970 2969 2968 2967 2967 2967 2966 2965 2964 2962 2962 2963 2964 2965 2965 2966 2966 2965 2966 2966 2966 2966 2966 2967 2967 2966 2966 2966 2966 2966 2966 2966 2966 2966 2966 2965 2965 2965 2965 2964 2964 2964 2963 2963 2963 2963 2962 2962 2961 2961 2961 2960 2960 2959 2959 2959 2958 2958 2957 2957 2956 2956 2956
2991 2990 2989 2988 2986 2986 2984 2983 2982 2981 2980 2979 2978 2977 2976 2975 2974 2973 2972 2971 2970 2969 2969 2968 2967 2966 2966 2965 2965 2964 2963 2962 2961 2961 2962 2963 2963 2964 2964 2964 2964 2964 2964 2964 2965 2965 2965 2966 2966 2965 2965 2965 2965 2965 2965 2964 2964 2964 2964 2964 2963 2963 2962 2962 2962 2961 2961 2961 2961 2960 2960 2959 2958 2958 2957 2957 2956 2956 2956 2955 2955 2954 2954 2953 2953 2953
2990 2988 2987 2986 2985 2984 2982 2981 2980 2979 2978 2977 2976 2975 2974 2973 2972 2971 2970 2969 2968 2967 2967 2966 2966 2965 2964 2964 2963 2962 2962 2961 2960 2960 2961 2961 2962 2962 2962 2963 2963 2963 2963 2963 2963 2963 2963 2964 2964 2964 2964 2964 2964 2964 2963 2963 2963 2962 2962 2962 2962 2961 2961 2961 2960 2959 2959 2959 2958 2958 2957 2957 2956 2956 2955 2955 2954 2953 2953 2952 2952 2951 2951 2951 2950 2950
2988 2986 2986 2984 2983 2982 2981 2980 2978 2977 2976 2975 2974 2973 2972 2971 2970 2969 2968 2967 2966 2966 2965 2964 2964 2963 2963 2962 2962 2961 2960 2959 2959 2959 2959 2960 2960 2961 2961 2961 2961 2961 2961 2961 2961 2961 2961 2962 2962 2962 2963 2963 2963 2963 2962 2962 2961 2961 2961 2961 2960 2960 2959 2958 2958 2957 2957 2956 2956 2956 2955 2954 2954 2953 2953 2952 2951 2951 2950 2950 2949 2948 2948 2947 2947 2946
2986 2985 2984 2982 2981 2980 2979 2978 2977 2976 2974 2973 2972 2971 2970 2969 2968 2967 2966 2965 2965 2964 2963 2962 2962 2961 2961 2961 2960 2960 2959 2958 2958 2958 2958 2958 2959 2959 2960 2960 2960 2960 2959 2959 2960 2960 2960 2960 2960 2961 2961 2961 2961 2961 2961 2961 2960 2960 2959 2959 2958 2958 2957 2956 2956 2955 2955 2954 2954 2953 2953 2952 2951 2951 2950 2949 2949 2948 2947 2947 2946 2946 2945 2944 2944 2943
2985 2983 2982 2981 2980 2979 2977 2976 2975 2974 2973 2971 2971 2969 2968 2967 2966 2965 2964 2964 2963 2962 2961 2961 2960 2960 2959 2959 2959 2958 2958 2957 2957 2956 2956 2957 2957 2958 2958 2958 2958 2958 2958 2958 2958 2958 2958 2958 2958 2959 2959 2959 2959 2959 2959 2959 2959 2958 2958 2957 2956 2956 2955 2954 2954 2953 2952 2952 2951 2951 2950 2950 2949 2948 2947 2947 2946 2945 2945 2944 2943 2943 2942 2941 2941 2940
2983 2982 2981 2979 2978 2977 2976 2975 2973 2972 2971 2970 2969 2968 2966 2966 2965 2964 2963 2962 2961 2961 2960 2959 2959 2958 2958 2957 2957 2957 2956 2956 2956 2956 2955 2955 2956 2956 2956 2956 2956 2956 2956 2956 2956 2956 2956 2956 2956 2956 2957 2957 2957 2957 2957 2956 2956 2956 2956 2955 2955 2954 2953 2952 2951 2951 2950 2949 2949 2948 2947 2947 2946 2945 2944 2944 2943 2942 2941 2941 2940 2940 2939 2938 2937 2937
2981 2980 2979 2977 2976 2975 2974 2973 2971 2971 2969 2968 2967 2966 2965 2964 2963 2962 2961 2960 2960 2959 2958 2958 2957 2957 2956 2956 2956 2955 2955 2955 2954 2954 2954 2954 2954 2954 2954 2954 2954 2954 2954 2954 2954 2954 2954 2954 2954 2954 2954 2954 2954 2954 2954 2954 2954 2953 2953 2953 2952 2952 2951 2950 2949 2948 2947 2947 2946 2946 2945 2944 2943 2942 2941 2941 2940 2939 2939 2938 2937 2936 2936 2935 2934 2934
2979 2978 2977 2976 2975 2973 2972 2971 2970 2969 2967 2966 2965 2964 2963 2962 2961 2960 2959 2959 2958 2957 2957 2956 2956 2956 2955 2955 2954 2954 2953 2953 2953 2953 2953 2952 2952 2952 2952 2952 2952 2952 2952 2952 2952 2951 2951 2951 2951 2951 2951 2951 2951 2951 2951 2951 2951 2951 2950 2950 2950 2949 2949 2947 2946 2946 2945 2944 2943 2942 2942 2941 2940 2939 2938 2937 2937 2936 2936 2935 2934 2933 2933 2932 2931 2931
2977 2976 2975 2974 2972 2971 2970 2969 2968 2967 2966 2965 2963 2962 2961 2961 2960 2959 2958 2957 2956 2956 2955 2955 2954 2954 2953 2953 2952 2952 2951 2951 2951 2951 2951 2951 2951 2951 2951 2951 2950 2950 2950 2950 2950 2950 2949 2949 2949 2948 2948 2948 2948 2948 2948 2948 2948 2947 2947 2946 2946 2946 2946 2945 2944 2943 2942 2941 2940 2939 2938 2937 2937 2936 2935 2934 2934 2933 2932 2931 2931 2930 2929 2929 2928 2927
2975 2974 2973 2972 2971 2969 2968 2967 2966 2965 2964 2963 2962 2961 2960 2959 2958 2957 2956 2956 2955 2954 2953 2953 2953 2952 2952 2951 2951 2950 2950 2949 2949 2949 2949 2949 2949 2949 2948 2948 2948 2948 2948 2947 2947 2947 2947 2946 2946 2946 2945 2945 2945 2945 2945 2945 2945 2944 2943 2942 2942 2942 2942 2942 2941 2940 2939 2938 2937 2936 2935 2934 2933 2932 2932 2931 2931 2930 2929 2928 2927 2927 2926 2925 2925 2924
2973 2972 2971 2970 2969 2967 2966 2965 2964 2963 2962 2961 2960 2959 2958 2957 2956 2956 2955 2954 2953 2952 2952 2951 2951 2951 2950 2950 2949 2948 2948 2947 2947 2947 2947 2947 2947 2946 2946 2946 2946 2946 2945 2945 2945 2944 2944 2944 2943 2943 2942 2942 2942 2942 2942 2942 2941 2941 2940 2939 2938 2938 2938 2938 2938 2937 2936 2935 2934 2933 2931 2931 2930 2929 2928 2928 2927 2926 2926 2925 2924 2924 2923 2922 2921 2921
2971 2970 2969 2968 2967 2966 2965 2963 2962 2961 2960 2959 2958 2957 2956 2955 2955 2954 2953 2952 2951 2951 2950 2950 2949 2949 2949 2948 2947 2946 2946 2946 2945 2945 2945 2945 2945 2944 2944 2944 2943 2943 2943 2942 2942 2942 2941 2941 2941 2940 2940 2939 2939 2939 2939 2938 2938 2937 2937 2936 2935 2934 2934 2934 2934 2933 2932 2931 2930 2929 2928 2927 2926 2925 2925 2925 2924 2923 2923 2922 2921 2920 2920 2919 2918 2917
2970 2968 2967 2966 2965 2964 2963 2962 2961 2960 2958 2957 2956 2956 2955 2954 2953 2952 2951 2951 2950 2949 2949 2948 2948 2947 2947 2946 2946 2945 2945 2944 2944 2943 2943 2942 2942 2942 2941 2941 2941 2940 2940 2940 2940 2939 2939 2938 2938 2937 2937 2936 2936 2936 2936 2935 2935 2934 2934 2933 2932 2931 2931 2930 2930 2929 2928 2927 2926 2926 2924 2923 2922 2921 2921 2921 2921 2920 2919 2919 2918 2917 2916 2916 2915 2914
2968 2967 2966 2964 2963 2962 2961 2960 2959 2958 2957 2956 2955 2954 2953 2952 2951 2951 2950 2949 2948 2948 2947 2947 2946 2946 2945 2945 2944 2944 2943 2942 2942 2941 2941 2940 2940 2939 2939 2938 2938 2938 2937 2937 2937 2936 2936 2936 2935 2935 2934 2934 2933 2933 2933 2932 2931 2930 2930 2929 2929 2928 2927 2927 2926 2925 2924 2923 2922 2922 2921 2920 2919 2918 2917 2917 2917 2916 2916 2916 2915 2914 2913 2913 2912 2911
2966 2965 2964 2963 2961 2961 2959 2958 2957 2956 2955 2954 2953 2952 2951 2950 2950 2949 2948 2947 2947 2946 2946 2945 2945 2944 2944 2943 2943 2942 2941 2941 2940 2939 2939 2938 2937 2937 2936 2936 2936 2935 2935 2934 2934 2934 2933 2933 2932 2932 2931 2931 2931 2930 2930 2929 2928 2927 2926 2926 2925 2925 2924 2923 2923 2922 2921 2920 2919 2918 2917 2916 2915 2914 2914 2913 2913 2913 2913 2912 2912 2911 2910 2909 2909 2908
2964 2963 2962 2961 2960 2959 2958 2957 2956 2955 2954 2952 2951 2951 2950 2949 2948 2947 2946 2946 2945 2945 2944 2944 2943 2943 2942 2941 2941 2941 2940 2939 2939 2938 2937 2936 2936 2935 2934 2934 2933 2932 2932 2931 2931 2931 2930 2930 2929 2929 2928 2928 2927 2927 2926 2926 2925 2924 2923 2922 2922 2921 2921 2920 2919 2919 2917 2916 2916 2915 2914 2913 2912 2911 2910 2910 2909 2909 2909 2909 2908 2908 2907 2906 2906 2905
2963 2962 2961 2960 2958 2957 2956 2955 2954 2953 2952 2951 2950 2949 2948 2947 2946 2946 2945 2944 2944 2943 2942 2942 2941 2941 2941 2940 2939 2939 2938 2937 2937 2936 2935 2934 2934 2933 2932 2931 2931 2930 2930 2929 2929 2928 2928 2927 2927 2926 2926 2925 2924 2924 2923 2923 2922 2921 2920 2920 2919 2918 2917 2917 2916 2916 2914 2913 2912 2911 2911 2909 2908 2907 2906 2906 2906 2906 2906 2906 2905 2905 2904 2903 2902 2901
2961 2960 2959 2958 2957 2956 2955 2954 2953 2952 2951 2950 2949 2947 2946 2946 2945 2944 2943 2942 2942 2941 2941 2940 2940 2939 2939 2938 2937 2937 2936 2936 2935 2934 2933 2932 2932 2931 2930 2930 2929 2928 2927 2927 2926 2926 2926 2925 2925 2925 2924 2923 2922 2921 2920 2920 2919 2919 2918 2917 2916 2915 2914 2914 2913 2912 2911 2910 2909 2908 2907 2906 2905 2904 2903 2902 2902 2902 2902 2902 2902 2901 2901 2900 2899 2898
2959 2958 2957 2956 2955 2954 2953 2952 2951 2950 2949 2948 2947 2946 2945 2944 2943 2942 2941 2941 2940 2939 2939 2938 2938 2937 2937 2936 2936 2935 2934 2934 2933 2932 2931 2931 2930 2929 2928 2927 2926 2926 2925 2924 2924 2923 2923 2922 2923 2923 2922 2921 2920 2918 2917 2917 2916 2916 2915 2915 2914 2912 2911 2911 2910 2909 2908 2907 2906 2905 2904 2903 2902 2901 2900 2899 2898 2898 2898 2899 2899 2898 2898 2896 2895 2895